Simultaneous Nadir Overpasses (SNOs) Predictions

Prediction of SNOs between METOP-B and TERRA Satellite Orbit:

Table of predicted SNOs for the next 14.0 days since TLE Epoch: 3/28/2020
Index Date (METOP-B) Time (METOP-B) Lat,Lon (METOP-B) SZA (METOP-B ) Date (TERRA) Time (TERRA) Lat,Lon (TERRA) SZA (TERRA ) Distance(km) Time Diff (sec)
1 03/29/2020 11:06:32 81.31, 60.74 80.33 03/29/2020 11:06:54 81.31, 60.74 80.34 0.24 22
2 03/29/2020 11:57:11 -81.32,-131.30 99.61 03/29/2020 11:56:20 -81.32,-131.32 99.63 0.73 51
3 04/01/2020 06:40:53 81.31, 127.53 79.32 04/01/2020 06:41:06 81.32, 127.40 79.31 2.17 13
4 04/01/2020 07:31:33 -81.32, -64.90 100.67 04/01/2020 07:30:33 -81.31, -65.01 100.71 1.86 60
5 04/04/2020 02:15:17 81.31,-166.49 78.22 04/04/2020 02:15:20 81.31,-166.37 78.23 2.01 3
6 04/04/2020 03:05:56 -81.32, 1.49 101.72 04/04/2020 03:04:46 -81.32, 1.63 101.73 2.54 70
7 04/06/2020 20:58:59 -81.31, 92.58 102.81 04/06/2020 21:00:07 -81.31, 92.55 102.78 0.73 68
8 04/06/2020 21:49:39 81.31, -99.73 77.22 04/06/2020 21:49:33 81.31, -99.80 77.21 1.22 6
9 04/09/2020 16:33:22 -81.31, 158.95 103.84 04/09/2020 16:34:20 -81.32, 159.09 103.79 2.71 58




NCC Satellite Simultaneous Nadir Overpasses (SNOs) Prediction Service
